{"data":{"norad_id":59736,"epoch":"2026-09-21T09:48:45.528192Z","epoch_age_seconds":92825,"freshness":"FRESH","line1":"1 59736U 24090G   26264.40886028 -.00000463  00000+0 -72980-5 0  9996","line2":"2 59736  43.0004 158.1096 0000961 270.8613  89.2128 15.27573964133372","mean_motion":15.27573964,"eccentricity":9.61e-5,"inclination_deg":43.0004,"raan_deg":158.1096,"arg_perigee_deg":270.8613,"mean_anomaly_deg":89.2128,"bstar":-7.298e-6,"rev_number":13337,"period_min":94.267121195841,"perigee_km":482.40780833386,"apogee_km":483.72653177535,"semimajor_km":6861.2041700546,"source":"CELESTRAK","updated_at":"2026-09-22T09:00:49.062752Z"}}